PEGASUS DEB, 39320

Orbit data source: Space-Track

PEGASUS DEB, 39320 is space debris in LEO originally from a launch on Thu, 19 May 1994 UTC launched from the Air Force Western Test Range (AFWTR). Debris objects in space refer to the collection of defunct objects orbiting the Earth. Examples of debris include non-operational satellites, rocket bodies, and fragments generated from explosions, collisions, or faulty payload assembly.

Loading next visibility...
Identifier
39320, 1994-029AFF
Orbit
LEO
Country
Flag of USUS
Related business
Manufacturer
Unknown
Mission
Spacecraft
Bus & Motor
Unknown
Mass
Unknown
Launch date (UTC)
1994-05-19 (32 years ago)
Launch vehicle
Unknown
Launch site
Air Force Western Test Range (AFWTR)
Object type
Payload
Rocket body
Debris
Shape & HBR
Unknown shape, 0.1 m
Radar Cross Section
Small (<0.1 m²)

Expand to show TLE details & history
Last TLE update: 1 week ago

TLE from 1 week ago
0 PEGASUS DEB
1 39320U 94029AFF 26166.10297606  .00002604  00000-0  60484-3 0  9990
2 39320  81.7570  95.4455 0280626  12.9292 347.8894 14.33250945726967
Epoch: 2026-06-15T02:28Z
TLE epoch observation values (Epoch: 2026-06-15T02:28:17.131Z)
Latitude
-0.00003°
Longitude
154.97994°
Altitude
587.623 km
Speed
7.669 km/s
True Right ascension
06h 21m 46s
True Declination
0° 00' 00"
Sunlit
Object was in daylight at epoch
Visualization orbit readout
Latitude
Unknown
Longitude
Unknown
Altitude
Unknown
Speed
Unknown
Apparent Right ascension
Unknown
Apparent Declination
Unknown
Sunlit
N/A
Visualization observer readout
Local Sidereal Time
22:25:33
Azimuth
Unknown
Elevation
Unknown
Doppler factor
Unknown
Orbital elements
Apogee altitude
978.82 km
Perigee altitude
577.181 km
Semi-major axis
7,156.137 km
Eccentricity
0.02806
Inclination
81.757°
RAAN
95.4455°
Arg. of periapsis
12.9292°
True anomaly
347.19083°
Mean anomaly
347.8894°
Eccentric anomaly
347.54256°
Mean motion
3.5853 °/min
Orbital period
100.41 mins
BSTAR
0.00060484
Loading maneuver chart data...
Computing Atmospheric mass density...

Documentation

Showing up to 5 results
|